Time,TemperatureF,DewpointF,PressureIn,WindDirection,WindDirectionDegrees,WindSpeedMPH,WindSpeedGustMPH,Humidity,HourlyPrecipIn,Conditions,Clouds,dailyrainin,SoftwareType,DateUTC
2013-07-27 00:00:00,64.3,53.9,30.14,North,349,0.0,0.0,69,0.00,,SKC,0.00,VWS V13.01,2013-07-27 05:00:00,
2013-07-27 00:05:00,64.0,54.0,30.14,North,349,0.0,0.0,70,0.00,,SKC,0.00,VWS V13.01,2013-07-27 05:05:00,
2013-07-27 00:10:00,63.6,54.0,30.14,North,349,0.0,0.0,71,0.00,,SKC,0.00,VWS V13.01,2013-07-27 05:10:00,
2013-07-27 00:16:00,63.3,53.8,30.14,North,349,0.0,0.0,71,0.00,,SKC,0.00,VWS V13.01,2013-07-27 05:16:00,
2013-07-27 00:21:00,63.1,53.6,30.14,North,349,0.0,0.0,71,0.00,,SKC,0.00,VWS V13.01,2013-07-27 05:21:00,
2013-07-27 00:26:00,62.8,53.7,30.14,North,349,0.0,0.0,72,0.00,,SKC,0.00,VWS V13.01,2013-07-27 05:26:00,
2013-07-27 00:32:00,62.5,53.4,30.14,North,349,0.0,0.0,72,0.00,,SKC,0.00,VWS V13.01,2013-07-27 05:32:00,
2013-07-27 00:38:00,62.1,53.3,30.15,North,349,0.0,0.0,73,0.00,,SKC,0.00,VWS V13.01,2013-07-27 05:38:00,
2013-07-27 00:43:00,61.7,53.7,30.15,North,349,0.0,0.0,75,0.00,,SKC,0.00,VWS V13.01,2013-07-27 05:43:00,
2013-07-27 00:48:00,61.5,53.5,30.15,North,349,0.0,0.0,75,0.00,,SKC,0.00,VWS V13.01,2013-07-27 05:48:00,
2013-07-27 00:53:00,61.2,53.6,30.15,North,349,0.0,0.0,76,0.00,,SKC,0.00,VWS V13.01,2013-07-27 05:53:00,
2013-07-27 00:58:00,60.9,53.3,30.15,North,349,0.0,0.0,76,0.00,,SKC,0.00,VWS V13.01,2013-07-27 05:58:00,
2013-07-27 01:03:00,60.7,53.5,30.15,North,349,0.0,0.0,77,0.00,,SKC,0.00,VWS V13.01,2013-07-27 06:03:00,
2013-07-27 01:09:00,60.5,53.3,30.15,North,349,0.0,0.0,77,0.00,,SKC,0.00,VWS V13.01,2013-07-27 06:09:00,
2013-07-27 01:14:00,60.3,53.4,30.15,North,349,0.0,0.0,78,0.00,,SKC,0.00,VWS V13.01,2013-07-27 06:14:00,
2013-07-27 01:19:00,60.1,53.6,30.15,North,349,0.0,0.0,79,0.00,,SKC,0.00,VWS V13.01,2013-07-27 06:19:00,
2013-07-27 01:24:00,59.9,53.4,30.14,North,349,0.0,0.0,79,0.00,,SKC,0.00,VWS V13.01,2013-07-27 06:24:00,
2013-07-27 01:29:00,59.8,53.3,30.14,North,349,0.0,0.0,79,0.00,,SKC,0.00,VWS V13.01,2013-07-27 06:29:00,
2013-07-27 01:34:00,59.8,53.6,30.15,North,349,0.0,0.0,80,0.00,,SKC,0.00,VWS V13.01,2013-07-27 06:34:00,
2013-07-27 01:39:00,59.7,53.5,30.15,North,349,0.0,0.0,80,0.00,,SKC,0.00,VWS V13.01,2013-07-27 06:39:00,
2013-07-27 01:44:00,59.5,53.3,30.14,North,349,0.0,0.0,80,0.00,,SKC,0.00,VWS V13.01,2013-07-27 06:44:00,
2013-07-27 01:50:00,59.4,53.2,30.14,North,349,0.0,0.0,80,0.00,,SKC,0.00,VWS V13.01,2013-07-27 06:50:00,
2013-07-27 01:55:00,59.2,53.4,30.14,North,349,0.0,0.0,81,0.00,,SKC,0.00,VWS V13.01,2013-07-27 06:55:00,
2013-07-27 02:00:00,59.0,53.2,30.14,North,349,0.0,0.0,81,0.00,,SKC,0.00,VWS V13.01,2013-07-27 07:00:00,
2013-07-27 02:05:00,58.8,53.0,30.14,North,349,0.0,0.0,81,0.00,,SKC,0.00,VWS V13.01,2013-07-27 07:05:00,
2013-07-27 02:10:00,58.6,53.1,30.14,North,349,0.0,0.0,82,0.00,,SKC,0.00,VWS V13.01,2013-07-27 07:10:00,
2013-07-27 02:15:00,58.6,53.1,30.14,North,349,0.0,0.0,82,0.00,,SKC,0.00,VWS V13.01,2013-07-27 07:15:00,
2013-07-27 02:20:00,58.6,53.1,30.14,North,349,0.0,0.0,82,0.00,,SKC,0.00,VWS V13.01,2013-07-27 07:20:00,
2013-07-27 02:25:00,58.6,53.5,30.14,North,349,0.0,0.0,83,0.00,,SKC,0.00,VWS V13.01,2013-07-27 07:25:00,
2013-07-27 02:30:00,58.7,53.2,30.14,North,349,0.0,0.0,82,0.00,,SKC,0.00,VWS V13.01,2013-07-27 07:30:00,
2013-07-27 02:35:00,58.7,53.2,30.14,North,349,0.0,0.0,82,0.00,,SKC,0.00,VWS V13.01,2013-07-27 07:35:00,
2013-07-27 02:40:00,58.7,53.2,30.14,North,349,0.0,0.0,82,0.00,,SKC,0.00,VWS V13.01,2013-07-27 07:40:00,
2013-07-27 02:45:00,58.7,53.2,30.14,North,349,0.0,0.0,82,0.00,,SKC,0.00,VWS V13.01,2013-07-27 07:45:00,
2013-07-27 02:50:00,58.6,53.1,30.13,North,349,0.0,0.0,82,0.00,,SKC,0.00,VWS V13.01,2013-07-27 07:50:00,
2013-07-27 02:55:00,58.6,52.8,30.13,North,349,0.0,0.0,81,0.00,,SKC,0.00,VWS V13.01,2013-07-27 07:55:00,
2013-07-27 03:00:00,58.5,52.7,30.14,North,349,0.0,0.0,81,0.00,,SKC,0.00,VWS V13.01,2013-07-27 08:00:00,
2013-07-27 03:06:00,58.4,52.6,30.14,North,349,0.0,0.0,81,0.00,,SKC,0.00,VWS V13.01,2013-07-27 08:06:00,
2013-07-27 03:11:00,58.2,52.4,30.14,North,349,0.0,0.0,81,0.00,,SKC,0.00,VWS V13.01,2013-07-27 08:11:00,
2013-07-27 03:16:00,58.0,52.5,30.14,North,349,0.0,0.0,82,0.00,,SKC,0.00,VWS V13.01,2013-07-27 08:16:00,
2013-07-27 03:21:00,57.8,52.3,30.13,North,350,0.0,0.0,82,0.00,,SKC,0.00,VWS V13.01,2013-07-27 08:21:00,
2013-07-27 03:26:00,57.7,52.2,30.14,North,349,0.0,0.0,82,0.00,,SKC,0.00,VWS V13.01,2013-07-27 08:26:00,
2013-07-27 03:31:00,57.6,52.2,30.13,North,349,0.0,0.0,82,0.00,,SKC,0.00,VWS V13.01,2013-07-27 08:31:00,
2013-07-27 03:36:00,57.4,52.0,30.13,North,349,0.0,0.0,82,0.00,,SKC,0.00,VWS V13.01,2013-07-27 08:36:00,
2013-07-27 03:41:00,57.3,52.2,30.13,North,349,0.0,0.0,83,0.00,,SKC,0.00,VWS V13.01,2013-07-27 08:41:00,
2013-07-27 03:47:00,57.2,52.1,30.13,North,349,0.0,0.0,83,0.00,,SKC,0.00,VWS V13.01,2013-07-27 08:47:00,
2013-07-27 03:52:00,57.1,52.0,30.13,North,349,0.0,0.0,83,0.00,,SKC,0.00,VWS V13.01,2013-07-27 08:52:00,
2013-07-27 03:57:00,57.1,52.0,30.13,North,350,0.0,0.0,83,0.00,,SKC,0.00,VWS V13.01,2013-07-27 08:57:00,
2013-07-27 04:02:00,57.1,52.0,30.14,North,350,0.0,0.0,83,0.00,,SKC,0.00,VWS V13.01,2013-07-27 09:02:00,
2013-07-27 04:07:00,57.1,52.0,30.14,North,350,0.0,0.0,83,0.00,,SKC,0.00,VWS V13.01,2013-07-27 09:07:00,
2013-07-27 04:12:00,57.1,52.0,30.14,North,350,0.0,0.0,83,0.00,,SKC,0.00,VWS V13.01,2013-07-27 09:12:00,
2013-07-27 04:17:00,57.1,52.0,30.13,North,350,0.0,0.0,83,0.00,,SKC,0.00,VWS V13.01,2013-07-27 09:17:00,
2013-07-27 04:22:00,57.1,52.0,30.14,North,350,0.0,0.0,83,0.00,,SKC,0.00,VWS V13.01,2013-07-27 09:22:00,
2013-07-27 04:28:00,57.1,52.0,30.13,North,350,0.0,0.0,83,0.00,,SKC,0.00,VWS V13.01,2013-07-27 09:28:00,
2013-07-27 04:33:00,57.1,52.0,30.13,North,350,0.0,0.0,83,0.00,,SKC,0.00,VWS V13.01,2013-07-27 09:33:00,
2013-07-27 04:38:00,57.1,52.0,30.13,North,350,0.0,0.0,83,0.00,,SKC,0.00,VWS V13.01,2013-07-27 09:38:00,
2013-07-27 04:43:00,57.1,52.0,30.13,North,350,0.0,0.0,83,0.00,,SKC,0.00,VWS V13.01,2013-07-27 09:43:00,
2013-07-27 04:48:00,57.1,52.0,30.13,North,351,0.0,0.0,83,0.00,,SKC,0.00,VWS V13.01,2013-07-27 09:48:00,
2013-07-27 04:53:00,57.1,52.0,30.13,North,351,0.0,0.0,83,0.00,,SKC,0.00,VWS V13.01,2013-07-27 09:53:00,
2013-07-27 04:59:00,57.1,52.0,30.13,North,349,0.0,0.0,83,0.00,,SKC,0.00,VWS V13.01,2013-07-27 09:59:00,
2013-07-27 05:04:00,57.2,52.1,30.13,NNW,348,0.0,0.0,83,0.00,,SKC,0.00,VWS V13.01,2013-07-27 10:04:00,
2013-07-27 05:09:00,57.2,52.1,30.13,North,350,0.0,0.0,83,0.00,,SKC,0.00,VWS V13.01,2013-07-27 10:09:00,
2013-07-27 05:14:00,57.3,51.9,30.13,North,350,0.0,0.0,82,0.00,,SKC,0.00,VWS V13.01,2013-07-27 10:14:00,
2013-07-27 05:19:00,57.3,51.9,30.14,North,350,0.0,0.0,82,0.00,,SKC,0.00,VWS V13.01,2013-07-27 10:19:00,
2013-07-27 05:24:00,57.3,51.9,30.14,North,350,0.0,0.0,82,0.00,,SKC,0.00,VWS V13.01,2013-07-27 10:24:00,
2013-07-27 05:29:00,57.2,51.8,30.14,North,350,0.0,0.0,82,0.00,,SKC,0.00,VWS V13.01,2013-07-27 10:29:00,
2013-07-27 05:35:00,57.2,51.4,30.14,North,351,0.0,0.0,81,0.00,,SKC,0.00,VWS V13.01,2013-07-27 10:35:00,
2013-07-27 05:40:00,57.2,51.4,30.14,North,351,0.0,0.0,81,0.00,,SKC,0.00,VWS V13.01,2013-07-27 10:40:00,
2013-07-27 05:46:00,57.1,51.3,30.14,North,352,0.0,0.0,81,0.00,,SKC,0.00,VWS V13.01,2013-07-27 10:46:00,
2013-07-27 05:52:00,57.1,51.3,30.15,North,352,0.0,0.0,81,0.00,,SKC,0.00,VWS V13.01,2013-07-27 10:52:00,
2013-07-27 05:57:00,57.0,51.2,30.15,North,352,0.0,0.0,81,0.00,,SKC,0.00,VWS V13.01,2013-07-27 10:57:00,
2013-07-27 06:02:00,56.9,51.1,30.15,North,352,0.0,0.0,81,0.00,,SKC,0.00,VWS V13.01,2013-07-27 11:02:00,
2013-07-27 06:07:00,56.8,51.0,30.15,North,352,0.0,0.0,81,0.00,,SKC,0.00,VWS V13.01,2013-07-27 11:07:00,
2013-07-27 06:13:00,56.7,50.9,30.15,North,358,0.0,0.0,81,0.00,,SKC,0.00,VWS V13.01,2013-07-27 11:13:00,
2013-07-27 06:18:00,56.7,50.9,30.15,North,358,0.0,0.0,81,0.00,,SKC,0.00,VWS V13.01,2013-07-27 11:18:00,
2013-07-27 06:24:00,56.6,50.8,30.15,North,358,0.0,0.0,81,0.00,,SKC,0.00,VWS V13.01,2013-07-27 11:24:00,
2013-07-27 06:29:00,56.5,51.1,30.16,North,3,0.0,0.0,82,0.00,,SKC,0.00,VWS V13.01,2013-07-27 11:29:00,
2013-07-27 06:34:00,56.4,51.0,30.16,North,3,0.0,0.0,82,0.00,,SKC,0.00,VWS V13.01,2013-07-27 11:34:00,
2013-07-27 06:39:00,56.3,50.9,30.16,NNE,22,0.0,0.0,82,0.00,,SKC,0.00,VWS V13.01,2013-07-27 11:39:00,
2013-07-27 06:44:00,56.4,51.0,30.16,NNE,20,0.0,0.0,82,0.00,,SKC,0.00,VWS V13.01,2013-07-27 11:44:00,
2013-07-27 06:50:00,56.6,50.8,30.16,NNE,15,0.0,0.0,81,0.00,,SKC,0.00,VWS V13.01,2013-07-27 11:50:00,
2013-07-27 06:55:00,56.8,51.0,30.16,North,8,0.0,0.0,81,0.00,,SKC,0.00,VWS V13.01,2013-07-27 11:55:00,
2013-07-27 07:01:00,57.1,51.3,30.16,NNE,32,0.0,2.0,81,0.00,,SKC,0.00,VWS V13.01,2013-07-27 12:01:00,
2013-07-27 07:07:00,57.4,51.6,30.16,NNE,32,0.0,0.0,81,0.00,,SKC,0.00,VWS V13.01,2013-07-27 12:07:00,
2013-07-27 07:12:00,57.7,51.6,30.16,NNE,33,0.0,1.0,80,0.00,,SKC,0.00,VWS V13.01,2013-07-27 12:12:00,
2013-07-27 07:18:00,58.1,51.6,30.17,NNE,24,0.0,1.0,79,0.00,,SKC,0.00,VWS V13.01,2013-07-27 12:18:00,
2013-07-27 07:24:00,58.6,51.8,30.17,NNE,27,0.0,1.0,78,0.00,,SKC,0.00,VWS V13.01,2013-07-27 12:24:00,
2013-07-27 07:29:00,59.1,51.9,30.17,NNE,22,0.0,1.0,77,0.00,,SKC,0.00,VWS V13.01,2013-07-27 12:29:00,
2013-07-27 07:35:00,59.6,51.7,30.17,NE,37,1.0,2.0,75,0.00,,SKC,0.00,VWS V13.01,2013-07-27 12:35:00,
2013-07-27 07:40:00,59.9,51.6,30.17,NNE,14,0.0,0.0,74,0.00,,SKC,0.00,VWS V13.01,2013-07-27 12:40:00,
2013-07-27 07:46:00,60.1,51.8,30.17,North,8,0.0,0.0,74,0.00,,SKC,0.00,VWS V13.01,2013-07-27 12:46:00,
2013-07-27 07:51:00,60.4,51.7,30.17,NNE,22,0.0,0.0,73,0.00,,SKC,0.00,VWS V13.01,2013-07-27 12:51:00,
2013-07-27 07:56:00,60.9,51.8,30.17,NNW,343,0.0,1.0,72,0.00,,SKC,0.00,VWS V13.01,2013-07-27 12:56:00,
2013-07-27 08:01:00,61.3,51.8,30.17,NE,44,0.0,2.0,71,0.00,,SKC,0.00,VWS V13.01,2013-07-27 13:01:00,
2013-07-27 08:07:00,61.8,51.1,30.17,NNE,27,1.0,2.0,68,0.00,,SKC,0.00,VWS V13.01,2013-07-27 13:07:00,
2013-07-27 08:13:00,62.2,51.5,30.17,NNE,27,2.0,2.0,68,0.00,,SKC,0.00,VWS V13.01,2013-07-27 13:13:00,
2013-07-27 08:19:00,62.4,51.3,30.17,North,358,4.0,4.0,67,0.00,,SKC,0.00,VWS V13.01,2013-07-27 13:19:00,
2013-07-27 08:24:00,62.4,51.3,30.17,NNE,32,0.0,5.0,67,0.00,,SKC,0.00,VWS V13.01,2013-07-27 13:24:00,
2013-07-27 08:30:00,62.2,51.5,30.17,NE,36,0.0,2.0,68,0.00,,SKC,0.00,VWS V13.01,2013-07-27 13:30:00,
2013-07-27 08:35:00,62.1,51.4,30.17,North,8,1.0,2.0,68,0.00,,SKC,0.00,VWS V13.01,2013-07-27 13:35:00,
2013-07-27 08:40:00,62.2,51.5,30.17,North,8,0.0,2.0,68,0.00,,SKC,0.00,VWS V13.01,2013-07-27 13:40:00,
2013-07-27 08:46:00,62.4,51.3,30.17,NE,35,0.0,3.0,67,0.00,,SKC,0.00,VWS V13.01,2013-07-27 13:46:00,
2013-07-27 08:51:00,62.9,51.8,30.17,NE,34,0.0,1.0,67,0.00,,SKC,0.00,VWS V13.01,2013-07-27 13:51:00,
2013-07-27 08:56:00,63.4,51.9,30.17,NE,37,1.0,2.0,66,0.00,,SKC,0.00,VWS V13.01,2013-07-27 13:56:00,
2013-07-27 09:01:00,64.0,52.0,30.17,NNE,32,1.0,2.0,65,0.00,,SKC,0.00,VWS V13.01,2013-07-27 14:01:00,
2013-07-27 09:07:00,64.6,51.7,30.17,NNE,27,0.0,1.0,63,0.00,,SKC,0.00,VWS V13.01,2013-07-27 14:07:00,
2013-07-27 09:12:00,64.9,51.6,30.17,NNW,345,0.0,1.0,62,0.00,,SKC,0.00,VWS V13.01,2013-07-27 14:12:00,
2013-07-27 09:17:00,64.8,51.0,30.17,North,8,0.0,3.0,61,0.00,,SKC,0.00,VWS V13.01,2013-07-27 14:17:00,
2013-07-27 09:23:00,65.3,51.5,30.17,NNE,14,0.0,1.0,61,0.00,,SKC,0.00,VWS V13.01,2013-07-27 14:23:00,
2013-07-27 09:28:00,65.9,51.6,30.17,North,354,0.0,4.0,60,0.00,,SKC,0.00,VWS V13.01,2013-07-27 14:28:00,
2013-07-27 09:33:00,66.7,51.9,30.17,NNE,23,0.0,3.0,59,0.00,,SKC,0.00,VWS V13.01,2013-07-27 14:33:00,
2013-07-27 09:38:00,67.4,51.7,30.17,NNE,17,1.0,1.0,57,0.00,,SKC,0.00,VWS V13.01,2013-07-27 14:38:00,
2013-07-27 09:43:00,67.9,51.6,30.17,WNW,294,0.0,1.0,56,0.00,,SKC,0.00,VWS V13.01,2013-07-27 14:43:00,
2013-07-27 09:48:00,67.8,51.5,30.17,NE,41,1.0,5.0,56,0.00,,SKC,0.00,VWS V13.01,2013-07-27 14:48:00,
2013-07-27 09:54:00,68.5,51.7,30.17,NE,55,1.0,5.0,55,0.00,,SKC,0.00,VWS V13.01,2013-07-27 14:54:00,
2013-07-27 09:59:00,69.0,51.2,30.17,NNE,32,2.0,6.0,53,0.00,,SKC,0.00,VWS V13.01,2013-07-27 14:59:00,
2013-07-27 10:04:00,69.4,51.5,30.17,WNW,297,0.0,1.0,53,0.00,,SKC,0.00,VWS V13.01,2013-07-27 15:04:00,
2013-07-27 10:09:00,69.5,51.1,30.16,NNE,31,0.0,2.0,52,0.00,,SKC,0.00,VWS V13.01,2013-07-27 15:09:00,
2013-07-27 10:14:00,70.1,51.2,30.16,NNE,13,3.0,7.0,51,0.00,,SKC,0.00,VWS V13.01,2013-07-27 15:14:00,
2013-07-27 10:20:00,70.1,50.6,30.16,North,358,0.0,13.0,50,0.00,,SKC,0.00,VWS V13.01,2013-07-27 15:20:00,
2013-07-27 10:25:00,70.0,51.1,30.16,North,3,1.0,1.0,51,0.00,,SKC,0.00,VWS V13.01,2013-07-27 15:25:00,
2013-07-27 10:30:00,70.4,50.9,30.16,NNE,27,3.0,5.0,50,0.00,,SKC,0.00,VWS V13.01,2013-07-27 15:30:00,
2013-07-27 10:35:00,71.0,50.9,30.16,WNW,300,1.0,5.0,49,0.00,,SKC,0.00,VWS V13.01,2013-07-27 15:35:00,
2013-07-27 10:40:00,71.4,51.3,30.15,North,8,0.0,5.0,49,0.00,,SKC,0.00,VWS V13.01,2013-07-27 15:40:00,
2013-07-27 10:45:00,71.6,51.5,30.15,West,278,0.0,7.0,49,0.00,,SKC,0.00,VWS V13.01,2013-07-27 15:45:00,
2013-07-27 10:50:00,69.9,50.4,30.15,NW,315,0.0,2.0,50,0.00,,SKC,0.00,VWS V13.01,2013-07-27 15:50:00,
2013-07-27 10:55:00,69.9,49.9,30.15,WNW,299,0.0,4.0,49,0.00,,SKC,0.00,VWS V13.01,2013-07-27 15:55:00,
2013-07-27 11:00:00,70.3,49.7,30.15,NW,311,1.0,4.0,48,0.00,,SKC,0.00,VWS V13.01,2013-07-27 16:00:00,
2013-07-27 11:05:00,70.5,50.4,30.15,NW,318,0.0,5.0,49,0.00,,SKC,0.00,VWS V13.01,2013-07-27 16:05:00,
2013-07-27 11:10:00,72.0,51.3,30.15,NNW,346,0.0,5.0,48,0.00,,SKC,0.00,VWS V13.01,2013-07-27 16:10:00,
2013-07-27 11:15:00,72.1,50.8,30.15,NW,323,5.0,5.0,47,0.00,,SKC,0.00,VWS V13.01,2013-07-27 16:15:00,
2013-07-27 11:20:00,71.6,49.2,30.14,NW,306,0.0,1.0,45,0.00,,SKC,0.00,VWS V13.01,2013-07-27 16:20:00,
2013-07-27 11:25:00,70.8,48.4,30.15,NNW,330,0.0,4.0,45,0.00,,SKC,0.00,VWS V13.01,2013-07-27 16:25:00,
2013-07-27 11:30:00,71.6,49.2,30.14,NW,318,0.0,1.0,45,0.00,,SKC,0.00,VWS V13.01,2013-07-27 16:30:00,
2013-07-27 11:35:00,72.7,49.5,30.14,NNE,14,1.0,5.0,44,0.00,,SKC,0.00,VWS V13.01,2013-07-27 16:35:00,
2013-07-27 11:41:00,73.9,48.1,30.15,NNE,30,3.0,8.0,40,0.00,,SKC,0.00,VWS V13.01,2013-07-27 16:41:00,
2013-07-27 11:46:00,74.2,48.3,30.14,SE,125,0.0,1.0,40,0.00,,SKC,0.00,VWS V13.01,2013-07-27 16:46:00,
2013-07-27 11:51:00,74.3,48.4,30.14,NNW,343,1.0,4.0,40,0.00,,SKC,0.00,VWS V13.01,2013-07-27 16:51:00,
2013-07-27 11:57:00,73.9,48.7,30.14,NNE,18,0.0,15.0,41,0.00,,SKC,0.00,VWS V13.01,2013-07-27 16:57:00,
2013-07-27 12:03:00,74.4,49.2,30.14,NNE,18,0.0,2.0,41,0.00,,SKC,0.00,VWS V13.01,2013-07-27 17:03:00,
2013-07-27 12:08:00,75.6,49.6,30.14,NE,34,0.0,5.0,40,0.00,,SKC,0.00,VWS V13.01,2013-07-27 17:08:00,
2013-07-27 12:13:00,75.4,48.8,30.14,NNE,22,3.0,17.0,39,0.00,,SKC,0.00,VWS V13.01,2013-07-27 17:13:00,
2013-07-27 12:18:00,75.8,49.8,30.14,NE,34,2.0,2.0,40,0.00,,SKC,0.00,VWS V13.01,2013-07-27 17:18:00,
2013-07-27 12:23:00,75.1,49.2,30.14,North,8,1.0,1.0,40,0.00,,SKC,0.00,VWS V13.01,2013-07-27 17:23:00,
2013-07-27 12:28:00,74.8,48.2,30.14,WNW,302,0.0,5.0,39,0.00,,SKC,0.00,VWS V13.01,2013-07-27 17:28:00,
2013-07-27 12:33:00,74.6,49.4,30.14,NNE,32,2.0,5.0,41,0.00,,SKC,0.00,VWS V13.01,2013-07-27 17:33:00,
2013-07-27 12:38:00,74.7,48.8,30.14,NW,306,0.0,2.0,40,0.00,,SKC,0.00,VWS V13.01,2013-07-27 17:38:00,
2013-07-27 12:43:00,75.7,49.7,30.14,North,8,2.0,6.0,40,0.00,,SKC,0.00,VWS V13.01,2013-07-27 17:43:00,
2013-07-27 12:49:00,75.6,48.2,30.14,NW,326,1.0,6.0,38,0.00,,SKC,0.00,VWS V13.01,2013-07-27 17:49:00,
2013-07-27 12:54:00,75.5,50.2,30.14,NE,42,3.0,4.0,41,0.00,,SKC,0.00,VWS V13.01,2013-07-27 17:54:00,
2013-07-27 12:59:00,77.5,50.6,30.13,NE,54,0.0,1.0,39,0.00,,SKC,0.00,VWS V13.01,2013-07-27 17:59:00,
2013-07-27 13:04:00,77.9,48.8,30.13,NNW,337,2.0,6.0,36,0.00,,SKC,0.00,VWS V13.01,2013-07-27 18:04:00,
2013-07-27 13:09:00,77.3,49.7,30.13,NE,43,2.0,4.0,38,0.00,,SKC,0.00,VWS V13.01,2013-07-27 18:09:00,
2013-07-27 13:14:00,76.5,49.0,30.13,NNE,22,3.0,9.0,38,0.00,,SKC,0.00,VWS V13.01,2013-07-27 18:14:00,
2013-07-27 13:19:00,76.8,50.0,30.12,North,358,1.0,4.0,39,0.00,,SKC,0.00,VWS V13.01,2013-07-27 18:19:00,
2013-07-27 13:24:00,78.1,51.2,30.13,NE,37,2.0,8.0,39,0.00,,SKC,0.00,VWS V13.01,2013-07-27 18:24:00,
2013-07-27 13:29:00,79.1,49.9,30.12,NW,315,0.0,1.0,36,0.00,,SKC,0.00,VWS V13.01,2013-07-27 18:29:00,
2013-07-27 13:34:00,78.1,50.5,30.12,NNW,348,0.0,14.0,38,0.00,,SKC,0.00,VWS V13.01,2013-07-27 18:34:00,
2013-07-27 13:39:00,76.7,48.5,30.12,NW,305,1.0,4.0,37,0.00,,SKC,0.00,VWS V13.01,2013-07-27 18:39:00,
2013-07-27 13:45:00,76.7,48.5,30.12,North,353,1.0,7.0,37,0.00,,SKC,0.00,VWS V13.01,2013-07-27 18:45:00,
2013-07-27 13:50:00,77.3,49.7,30.12,WNW,287,0.0,1.0,38,0.00,,SKC,0.00,VWS V13.01,2013-07-27 18:50:00,
2013-07-27 13:55:00,77.9,49.6,30.12,WNW,288,0.0,6.0,37,0.00,,SKC,0.00,VWS V13.01,2013-07-27 18:55:00,
2013-07-27 14:00:00,77.0,49.5,30.11,WNW,295,0.0,4.0,38,0.00,,SKC,0.00,VWS V13.01,2013-07-27 19:00:00,
2013-07-27 14:05:00,75.4,50.1,30.11,NW,326,6.0,7.0,41,0.00,,SKC,0.00,VWS V13.01,2013-07-27 19:05:00,
2013-07-27 14:10:00,77.8,50.2,30.11,NW,312,6.0,8.0,38,0.00,,SKC,0.00,VWS V13.01,2013-07-27 19:10:00,
2013-07-27 14:15:00,77.4,49.8,30.11,North,3,0.0,4.0,38,0.00,,SKC,0.00,VWS V13.01,2013-07-27 19:15:00,
2013-07-27 14:21:00,77.7,50.1,30.11,NNE,30,1.0,7.0,38,0.00,,SKC,0.00,VWS V13.01,2013-07-27 19:21:00,
2013-07-27 14:26:00,77.2,49.7,30.11,North,3,0.0,1.0,38,0.00,,SKC,0.00,VWS V13.01,2013-07-27 19:26:00,
2013-07-27 14:32:00,78.2,49.8,30.11,North,358,1.0,7.0,37,0.00,,SKC,0.00,VWS V13.01,2013-07-27 19:32:00,
2013-07-27 14:37:00,78.7,50.3,30.11,North,8,4.0,8.0,37,0.00,,SKC,0.00,VWS V13.01,2013-07-27 19:37:00,
2013-07-27 14:42:00,79.5,51.0,30.11,North,358,1.0,1.0,37,0.00,,SKC,0.00,VWS V13.01,2013-07-27 19:42:00,
2013-07-27 14:48:00,79.1,49.9,30.10,NNE,12,0.0,5.0,36,0.00,,SKC,0.00,VWS V13.01,2013-07-27 19:48:00,
2013-07-27 14:53:00,77.7,49.4,30.11,NNW,336,2.0,13.0,37,0.00,,SKC,0.00,VWS V13.01,2013-07-27 19:53:00,
2013-07-27 14:58:00,78.5,49.3,30.10,NW,324,0.0,2.0,36,0.00,,SKC,0.00,VWS V13.01,2013-07-27 19:58:00,
2013-07-27 15:03:00,78.9,49.0,30.10,WNW,299,1.0,6.0,35,0.00,,SKC,0.00,VWS V13.01,2013-07-27 20:03:00,
2013-07-27 15:08:00,78.2,49.8,30.10,NE,52,4.0,4.0,37,0.00,,SKC,0.00,VWS V13.01,2013-07-27 20:08:00,
2013-07-27 15:14:00,79.8,49.7,30.09,North,8,1.0,13.0,35,0.00,,SKC,0.00,VWS V13.01,2013-07-27 20:14:00,
2013-07-27 15:19:00,79.9,49.0,30.10,NNE,15,2.0,5.0,34,0.00,,SKC,0.00,VWS V13.01,2013-07-27 20:19:00,
2013-07-27 15:24:00,78.4,48.5,30.09,West,274,5.0,5.0,35,0.00,,SKC,0.00,VWS V13.01,2013-07-27 20:24:00,
2013-07-27 15:30:00,77.3,49.7,30.09,NNW,332,1.0,2.0,38,0.00,,SKC,0.00,VWS V13.01,2013-07-27 20:30:00,
2013-07-27 15:35:00,78.6,49.4,30.09,NW,307,7.0,7.0,36,0.00,,SKC,0.00,VWS V13.01,2013-07-27 20:35:00,
2013-07-27 15:40:00,80.3,50.9,30.08,NNE,29,0.0,1.0,36,0.00,,SKC,0.00,VWS V13.01,2013-07-27 20:40:00,
2013-07-27 15:45:00,80.0,49.1,30.08,West,275,1.0,6.0,34,0.00,,SKC,0.00,VWS V13.01,2013-07-27 20:45:00,
2013-07-27 15:50:00,78.2,49.8,30.08,NNW,329,5.0,6.0,37,0.00,,SKC,0.00,VWS V13.01,2013-07-27 20:50:00,
2013-07-27 15:55:00,79.3,50.8,30.08,NNE,26,0.0,4.0,37,0.00,,SKC,0.00,VWS V13.01,2013-07-27 20:55:00,
2013-07-27 16:00:00,80.8,52.1,30.08,North,353,0.0,4.0,37,0.00,,SKC,0.00,VWS V13.01,2013-07-27 21:00:00,
2013-07-27 16:05:00,81.5,51.2,30.08,NW,316,0.0,4.0,35,0.00,,SKC,0.00,VWS V13.01,2013-07-27 21:05:00,
2013-07-27 16:11:00,81.0,51.6,30.08,NNW,341,0.0,4.0,36,0.00,,SKC,0.00,VWS V13.01,2013-07-27 21:11:00,
2013-07-27 16:17:00,80.1,50.8,30.08,WNW,289,0.0,7.0,36,0.00,,SKC,0.00,VWS V13.01,2013-07-27 21:17:00,
2013-07-27 16:22:00,79.2,49.2,30.08,NW,312,7.0,9.0,35,0.00,,SKC,0.00,VWS V13.01,2013-07-27 21:22:00,
2013-07-27 16:27:00,78.9,49.7,30.08,NE,36,11.0,11.0,36,0.00,,SKC,0.00,VWS V13.01,2013-07-27 21:27:00,
2013-07-27 16:32:00,78.6,50.2,30.08,NW,305,2.0,7.0,37,0.00,,SKC,0.00,VWS V13.01,2013-07-27 21:32:00,
2013-07-27 16:37:00,78.3,49.9,30.07,NE,45,0.0,7.0,37,0.00,,SKC,0.00,VWS V13.01,2013-07-27 21:37:00,
2013-07-27 16:43:00,78.1,49.7,30.07,NE,39,2.0,3.0,37,0.00,,SKC,0.00,VWS V13.01,2013-07-27 21:43:00,
2013-07-27 16:48:00,77.8,50.9,30.07,NW,309,0.0,1.0,39,0.00,,SKC,0.00,VWS V13.01,2013-07-27 21:48:00,
2013-07-27 16:53:00,77.2,49.7,30.07,NW,314,4.0,12.0,38,0.00,,SKC,0.00,VWS V13.01,2013-07-27 21:53:00,
2013-07-27 16:58:00,77.5,49.9,30.07,WNW,302,4.0,13.0,38,0.00,,SKC,0.00,VWS V13.01,2013-07-27 21:58:00,
2013-07-27 17:03:00,77.1,49.6,30.07,WNW,286,0.0,4.0,38,0.00,,SKC,0.00,VWS V13.01,2013-07-27 22:03:00,
2013-07-27 17:08:00,76.7,50.6,30.07,West,278,14.0,14.0,40,0.00,,SKC,0.00,VWS V13.01,2013-07-27 22:08:00,
2013-07-27 17:13:00,76.5,49.7,30.06,NW,306,0.0,2.0,39,0.00,,SKC,0.00,VWS V13.01,2013-07-27 22:13:00,
2013-07-27 17:18:00,76.6,49.8,30.06,WNW,299,0.0,4.0,39,0.00,,SKC,0.00,VWS V13.01,2013-07-27 22:18:00,
2013-07-27 17:23:00,76.6,49.1,30.06,WNW,295,1.0,5.0,38,0.00,,SKC,0.00,VWS V13.01,2013-07-27 22:23:00,
2013-07-27 17:28:00,77.4,51.2,30.06,WNW,293,2.0,5.0,40,0.00,,SKC,0.00,VWS V13.01,2013-07-27 22:28:00,
2013-07-27 17:33:00,77.7,50.8,30.06,West,274,0.0,0.0,39,0.00,,SKC,0.00,VWS V13.01,2013-07-27 22:33:00,
2013-07-27 17:38:00,78.7,50.3,30.06,North,8,0.0,1.0,37,0.00,,SKC,0.00,VWS V13.01,2013-07-27 22:38:00,
2013-07-27 17:43:00,80.1,51.5,30.06,NNE,29,3.0,8.0,37,0.00,,SKC,0.00,VWS V13.01,2013-07-27 22:43:00,
2013-07-27 17:48:00,80.6,51.2,30.06,NE,49,8.0,9.0,36,0.00,,SKC,0.00,VWS V13.01,2013-07-27 22:48:00,
2013-07-27 17:53:00,80.4,51.0,30.06,NNE,12,0.0,4.0,36,0.00,,SKC,0.00,VWS V13.01,2013-07-27 22:53:00,
2013-07-27 17:58:00,81.0,51.6,30.06,WNW,297,0.0,2.0,36,0.00,,SKC,0.00,VWS V13.01,2013-07-27 22:58:00,
2013-07-27 18:03:00,79.8,49.7,30.06,WNW,282,1.0,8.0,35,0.00,,SKC,0.00,VWS V13.01,2013-07-27 23:03:00,
2013-07-27 18:08:00,78.5,50.8,30.06,NW,310,0.0,4.0,38,0.00,,SKC,0.00,VWS V13.01,2013-07-27 23:08:00,
2013-07-27 18:13:00,79.0,50.5,30.06,WNW,302,1.0,2.0,37,0.00,,SKC,0.00,VWS V13.01,2013-07-27 23:13:00,
2013-07-27 18:18:00,78.3,50.6,30.06,West,277,4.0,11.0,38,0.00,,SKC,0.00,VWS V13.01,2013-07-27 23:18:00,
2013-07-27 18:23:00,77.3,49.7,30.06,West,276,1.0,8.0,38,0.00,,SKC,0.00,VWS V13.01,2013-07-27 23:23:00,
2013-07-27 18:28:00,76.6,50.5,30.05,West,260,2.0,6.0,40,0.00,,SKC,0.00,VWS V13.01,2013-07-27 23:28:00,
2013-07-27 18:33:00,75.8,49.8,30.05,WNW,296,5.0,6.0,40,0.00,,SKC,0.00,VWS V13.01,2013-07-27 23:33:00,
2013-07-27 18:39:00,75.9,49.2,30.05,WSW,247,0.0,3.0,39,0.00,,SKC,0.00,VWS V13.01,2013-07-27 23:39:00,
2013-07-27 18:44:00,76.0,49.3,30.05,NNE,14,2.0,8.0,39,0.00,,SKC,0.00,VWS V13.01,2013-07-27 23:44:00,
2013-07-27 18:49:00,76.1,50.0,30.05,NW,308,0.0,2.0,40,0.00,,SKC,0.00,VWS V13.01,2013-07-27 23:49:00,
2013-07-27 18:54:00,76.1,50.0,30.05,West,281,4.0,6.0,40,0.00,,SKC,0.00,VWS V13.01,2013-07-27 23:54:00,
2013-07-27 18:59:00,75.9,49.9,30.04,NW,309,2.0,8.0,40,0.00,,SKC,0.00,VWS V13.01,2013-07-27 23:59:00,
2013-07-27 19:04:00,75.6,50.3,30.05,NNW,327,0.0,2.0,41,0.00,,SKC,0.00,VWS V13.01,2013-07-28 00:04:00,
2013-07-27 19:09:00,75.8,50.5,30.05,NW,326,0.0,6.0,41,0.00,,SKC,0.00,VWS V13.01,2013-07-28 00:09:00,
2013-07-27 19:14:00,76.0,50.6,30.05,WNW,297,0.0,5.0,41,0.00,,SKC,0.00,VWS V13.01,2013-07-28 00:14:00,
2013-07-27 19:19:00,76.1,50.7,30.05,West,268,0.0,0.0,41,0.00,,SKC,0.00,VWS V13.01,2013-07-28 00:19:00,
2013-07-27 19:24:00,76.3,49.5,30.05,NW,312,1.0,7.0,39,0.00,,SKC,0.00,VWS V13.01,2013-07-28 00:24:00,
2013-07-27 19:29:00,75.7,49.0,30.05,NW,305,1.0,11.0,39,0.00,,SKC,0.00,VWS V13.01,2013-07-28 00:29:00,
2013-07-27 19:34:00,75.0,49.1,30.05,WNW,289,4.0,4.0,40,0.00,,SKC,0.00,VWS V13.01,2013-07-28 00:34:00,
2013-07-27 19:39:00,74.4,48.5,30.06,NW,320,4.0,4.0,40,0.00,,SKC,0.00,VWS V13.01,2013-07-28 00:39:00,
2013-07-27 19:44:00,74.1,48.9,30.06,NW,308,2.0,2.0,41,0.00,,SKC,0.00,VWS V13.01,2013-07-28 00:44:00,
2013-07-27 19:49:00,74.1,49.6,30.06,NNE,24,0.0,3.0,42,0.00,,SKC,0.00,VWS V13.01,2013-07-28 00:49:00,
2013-07-27 19:54:00,74.0,49.5,30.06,NW,305,0.0,5.0,42,0.00,,SKC,0.00,VWS V13.01,2013-07-28 00:54:00,
2013-07-27 19:59:00,73.8,49.3,30.06,WNW,285,0.0,1.0,42,0.00,,SKC,0.00,VWS V13.01,2013-07-28 00:59:00,
2013-07-27 20:05:00,73.5,49.0,30.06,WNW,292,5.0,5.0,42,0.00,,SKC,0.00,VWS V13.01,2013-07-28 01:05:00,
2013-07-27 20:10:00,73.0,49.2,30.06,NW,304,0.0,5.0,43,0.00,,SKC,0.00,VWS V13.01,2013-07-28 01:10:00,
2013-07-27 20:15:00,72.6,49.5,30.06,WNW,303,0.0,0.0,44,0.00,,SKC,0.00,VWS V13.01,2013-07-28 01:15:00,
2013-07-27 20:20:00,72.5,49.4,30.06,NW,305,0.0,2.0,44,0.00,,SKC,0.00,VWS V13.01,2013-07-28 01:20:00,
2013-07-27 20:25:00,72.1,49.6,30.06,NW,305,0.0,0.0,45,0.00,,SKC,0.00,VWS V13.01,2013-07-28 01:25:00,
2013-07-27 20:30:00,71.7,49.2,30.07,WNW,294,0.0,0.0,45,0.00,,SKC,0.00,VWS V13.01,2013-07-28 01:30:00,
2013-07-27 20:35:00,71.3,49.5,30.07,WNW,290,0.0,1.0,46,0.00,,SKC,0.00,VWS V13.01,2013-07-28 01:35:00,
2013-07-27 20:40:00,70.8,49.0,30.06,WNW,302,0.0,0.0,46,0.00,,SKC,0.00,VWS V13.01,2013-07-28 01:40:00,
2013-07-27 20:45:00,70.5,49.3,30.06,WNW,301,0.0,1.0,47,0.00,,SKC,0.00,VWS V13.01,2013-07-28 01:45:00,
2013-07-27 20:50:00,70.2,49.6,30.06,WNW,301,0.0,0.0,48,0.00,,SKC,0.00,VWS V13.01,2013-07-28 01:50:00,
2013-07-27 20:55:00,69.9,49.3,30.06,WNW,301,0.0,0.0,48,0.00,,SKC,0.00,VWS V13.01,2013-07-28 01:55:00,
2013-07-27 21:00:00,69.7,49.2,30.06,WNW,301,0.0,0.0,48,0.00,,SKC,0.00,VWS V13.01,2013-07-28 02:00:00,
2013-07-27 21:05:00,69.4,49.4,30.06,WNW,301,0.0,0.0,49,0.00,,SKC,0.00,VWS V13.01,2013-07-28 02:05:00,
2013-07-27 21:10:00,69.3,49.9,30.06,WNW,301,0.0,0.0,50,0.00,,SKC,0.00,VWS V13.01,2013-07-28 02:10:00,
2013-07-27 21:15:00,69.1,50.2,30.07,WNW,301,0.0,0.0,51,0.00,,SKC,0.00,VWS V13.01,2013-07-28 02:15:00,
2013-07-27 21:20:00,68.6,49.2,30.07,North,8,0.0,0.0,50,0.00,,SKC,0.00,VWS V13.01,2013-07-28 02:20:00,
2013-07-27 21:25:00,68.2,48.9,30.07,North,8,1.0,2.0,50,0.00,,SKC,0.00,VWS V13.01,2013-07-28 02:25:00,
2013-07-27 21:30:00,67.9,48.6,30.07,NNE,16,0.0,0.0,50,0.00,,SKC,0.00,VWS V13.01,2013-07-28 02:30:00,
2013-07-27 21:35:00,67.6,48.3,30.07,NNE,16,0.0,0.0,50,0.00,,SKC,0.00,VWS V13.01,2013-07-28 02:35:00,
2013-07-27 21:40:00,67.4,48.1,30.07,NNE,16,0.0,0.0,50,0.00,,SKC,0.00,VWS V13.01,2013-07-28 02:40:00,
2013-07-27 21:45:00,67.2,48.0,30.07,NNE,16,0.0,0.0,50,0.00,,SKC,0.00,VWS V13.01,2013-07-28 02:45:00,
2013-07-27 21:50:00,66.9,48.2,30.07,NNE,16,0.0,0.0,51,0.00,,SKC,0.00,VWS V13.01,2013-07-28 02:50:00,
2013-07-27 21:55:00,66.7,48.0,30.07,NNE,16,0.0,0.0,51,0.00,,SKC,0.00,VWS V13.01,2013-07-28 02:55:00,
2013-07-27 22:00:00,66.5,47.8,30.07,NNE,16,0.0,0.0,51,0.00,,SKC,0.00,VWS V13.01,2013-07-28 03:00:00,
2013-07-27 22:05:00,66.3,47.7,30.07,NNE,16,0.0,0.0,51,0.00,,SKC,0.00,VWS V13.01,2013-07-28 03:05:00,
2013-07-27 22:10:00,65.9,47.3,30.07,NNE,27,0.0,0.0,51,0.00,,SKC,0.00,VWS V13.01,2013-07-28 03:10:00,
2013-07-27 22:15:00,65.7,47.6,30.07,NNE,27,0.0,0.0,52,0.00,,SKC,0.00,VWS V13.01,2013-07-28 03:15:00,
2013-07-27 22:20:00,65.5,47.4,30.07,NNE,27,0.0,0.0,52,0.00,,SKC,0.00,VWS V13.01,2013-07-28 03:20:00,
2013-07-27 22:25:00,65.3,47.2,30.07,NNE,27,0.0,0.0,52,0.00,,SKC,0.00,VWS V13.01,2013-07-28 03:25:00,
2013-07-27 22:30:00,65.0,47.5,30.07,NNE,27,0.0,0.0,53,0.00,,SKC,0.00,VWS V13.01,2013-07-28 03:30:00,
2013-07-27 22:35:00,64.8,47.3,30.08,NNE,27,0.0,0.0,53,0.00,,SKC,0.00,VWS V13.01,2013-07-28 03:35:00,
2013-07-27 22:40:00,64.7,47.7,30.08,NNE,27,0.0,0.0,54,0.00,,SKC,0.00,VWS V13.01,2013-07-28 03:40:00,
2013-07-27 22:45:00,64.5,47.5,30.07,NNE,27,0.0,0.0,54,0.00,,SKC,0.00,VWS V13.01,2013-07-28 03:45:00,
2013-07-27 22:50:00,64.3,47.3,30.07,NNE,27,0.0,0.0,54,0.00,,SKC,0.00,VWS V13.01,2013-07-28 03:50:00,
2013-07-27 22:55:00,64.1,47.6,30.07,NNE,27,0.0,0.0,55,0.00,,SKC,0.00,VWS V13.01,2013-07-28 03:55:00,
2013-07-27 23:00:00,63.9,47.4,30.08,NNE,27,0.0,0.0,55,0.00,,SKC,0.00,VWS V13.01,2013-07-28 04:00:00,
2013-07-27 23:01:00,63.9,47.4,30.08,NNE,27,0.0,0.0,55,0.00,,SKC,0.00,VWS V13.01,2013-07-28 04:01:00,
2013-07-27 23:02:00,63.8,47.3,30.08,NNE,27,0.0,0.0,55,0.00,,SKC,0.00,VWS V13.01,2013-07-28 04:02:00,
2013-07-27 23:04:00,63.8,47.3,30.08,NNE,27,0.0,0.0,55,0.00,,SKC,0.00,VWS V13.01,2013-07-28 04:04:00,
2013-07-27 23:05:00,63.8,47.8,30.08,NNE,27,0.0,0.0,56,0.00,,SKC,0.00,VWS V13.01,2013-07-28 04:05:00,
2013-07-27 23:06:00,63.7,47.7,30.08,NNE,27,0.0,0.0,56,0.00,,SKC,0.00,VWS V13.01,2013-07-28 04:06:00,
2013-07-27 23:11:00,63.6,47.6,30.08,NNE,27,0.0,0.0,56,0.00,,SKC,0.00,VWS V13.01,2013-07-28 04:11:00,
2013-07-27 23:17:00,63.3,47.3,30.08,NNE,27,0.0,0.0,56,0.00,,SKC,0.00,VWS V13.01,2013-07-28 04:17:00,
2013-07-27 23:22:00,63.2,47.7,30.08,NNE,27,0.0,0.0,57,0.00,,SKC,0.00,VWS V13.01,2013-07-28 04:22:00,
2013-07-27 23:27:00,62.9,47.5,30.08,NNE,27,0.0,0.0,57,0.00,,SKC,0.00,VWS V13.01,2013-07-28 04:27:00,
2013-07-27 23:32:00,62.7,47.7,30.08,NNE,27,0.0,0.0,58,0.00,,SKC,0.00,VWS V13.01,2013-07-28 04:32:00,
2013-07-27 23:38:00,62.5,48.0,30.08,NNE,27,0.0,0.0,59,0.00,,SKC,0.00,VWS V13.01,2013-07-28 04:38:00,
2013-07-27 23:43:00,62.2,48.2,30.08,NNE,27,0.0,0.0,60,0.00,,SKC,0.00,VWS V13.01,2013-07-28 04:43:00,
2013-07-27 23:48:00,62.0,47.5,30.08,NNE,27,0.0,0.0,59,0.00,,SKC,0.00,VWS V13.01,2013-07-28 04:48:00,
2013-07-27 23:53:00,61.7,48.1,30.08,NNE,27,0.0,0.0,61,0.00,,SKC,0.00,VWS V13.01,2013-07-28 04:53:00,
2013-07-27 23:59:00,61.4,48.3,30.08,NNE,27,0.0,0.0,62,0.00,,SKC,0.00,VWS V13.01,2013-07-28 04:59:00,